Location: Unspecified
(0.0000°N, 0.0000°E)
Time: 19:33:24
(UTC+00:00)

Vanguard 1 Rocket - Pass Details

Date: 24 April 2026
Orbit: 655 x 4212 km, 34.3° (Epoch: 17 May)

Event Time Altitude Azimuth Distance (km) Brightness Sun altitude
Rises 03:34:03 0° 311° (NW) 7,487 11.8 -35.0°
Reaches altitude 10° 03:39:57 10° 314° (NW) 5,949 11.2 -33.6°
Maximum altitude 03:55:50 65° 33° (NNE) 1,948 9.0 -29.8°
Drops below altitude 10° 04:03:43 10° 114° (ESE) 3,141 10.8 -27.8°
Sets 04:05:52 0° 117° (ESE) 3,842 11.3 -27.3°
